Haleyville, AL

7:09 PM CST on December 10, 2017 (GMT -0600)
Haleyville

Weather History for K1M4 - November, 2012

Change the Weather History Date:

Friday, November 2, 2012

  Actual Average (KJFX) Record (KJFX)
Temperature  
Mean Temperature 56 °F -  
Max Temperature 75 °F 69 °F 87 °F (2016)
Min Temperature 38 °F 43 °F 24 °F (1993)
Degree Days  
Heating Degree Days 8    
Growing Degree Days 6 (Base 50)    
Moisture  
Dew Point 45 °F    
Average Humidity 72    
Maximum Humidity 97    
Minimum Humidity 34    
Precipitation  
Precipitation 0.00 in - - ()
Sea Level Pressure  
Sea Level Pressure 30.06 in    
Wind  
Wind Speed 3 mph (SW)    
Max Wind Speed 8 mph    
Max Gust Speed -    
Visibility 10 miles    
Events      
Averages and records for this station are not official NWS values.
T = Trace of Precipitation, MM = Missing Value Source: NWS Daily Summary

Daily Weather History Graph

Daily Weather History Graph

Search for Another Location

Airport or City:

Trip Planner

Search our weather history database for the weather conditions in past years. The results will help you decide how hot, cold, wet, or windy it might be!

Date:

Astronomy

Nov. 02, 2012 Rise Set
Actual Time 7:11 AM CDT 5:55 PM CDT
Civil Twilight 6:45 AM CDT 6:21 PM CDT
Nautical Twilight 6:15 AM CDT 6:51 PM CDT
Astronomical Twilight 5:46 AM CDT 7:20 PM CDT
Moon 8:47 PM CDT (11/2) 10:26 AM CDT (11/2)
Length of Visible Light 11h 36m
Length of Day
10h 44m
Waning Gibbous, 87% of the Moon is Illuminated
Nov 2
Waning Gibbous
Nov 6
Last Quarter
Nov 13
New
Nov 20
First Quarter
Nov 28
Full

Hourly Weather History & Observations

Time (CDT) Temp. Windchill Dew Point Humidity Pressure Visibility Wind Dir Wind Speed Gust Speed Precip Events Conditions
12:56 AM 38.8 °F - 36.9 °F 93% 30.05 in 10.0 mi Calm Calm - N/A   Clear
1:56 AM 41.9 °F 40.0 °F 37.9 °F 86% 30.05 in 10.0 mi SSW 3.5 mph - N/A   Clear
2:56 AM 43.9 °F 41.3 °F 37.9 °F 80% 30.04 in 10.0 mi SSW 4.6 mph - N/A   Clear
3:56 AM 38.8 °F - 36.9 °F 93% 30.04 in 10.0 mi Calm Calm - N/A   Clear
4:56 AM 39.9 °F - 37.9 °F 93% 30.04 in 10.0 mi Calm Calm - N/A   Clear
5:56 AM 43.0 °F 41.3 °F 38.8 °F 85% 30.05 in 10.0 mi South 3.5 mph - N/A   Clear
6:56 AM 43.0 °F 41.3 °F 39.9 °F 89% 30.05 in 10.0 mi South 3.5 mph - N/A   Clear
7:56 AM 45.9 °F 43.6 °F 41.9 °F 86% 30.06 in 10.0 mi South 4.6 mph - N/A   Clear
8:56 AM 55.9 °F - 45.0 °F 67% 30.08 in 10.0 mi WSW 5.8 mph - N/A   Clear
9:56 AM 59.9 °F - 46.9 °F 62% 30.08 in 10.0 mi Variable 6.9 mph - N/A   Clear
10:56 AM 66.9 °F - 50.0 °F 54% 30.08 in 10.0 mi Variable 5.8 mph - N/A   Clear
11:56 AM 70.0 °F - 50.9 °F 51% 30.07 in 10.0 mi Variable 5.8 mph - N/A   Clear
12:56 PM 72.9 °F - 50.0 °F 44% 30.05 in 10.0 mi Variable 5.8 mph - N/A   Clear
1:56 PM 74.8 °F - 47.8 °F 38% 30.04 in 10.0 mi NNW 8.1 mph - N/A   Clear
2:56 PM 75.9 °F - 46.9 °F 36% 30.03 in 10.0 mi West 8.1 mph - N/A   Clear
3:56 PM 74.8 °F - 45.0 °F 34% 30.04 in 10.0 mi West 5.8 mph - N/A   Clear
4:56 PM 72.9 °F - 48.9 °F 43% 30.04 in 10.0 mi West 3.5 mph - N/A   Clear
5:56 PM 65.8 °F - 50.9 °F 58% 30.06 in 10.0 mi Calm Calm - N/A   Clear
6:56 PM 57.9 °F - 50.0 °F 75% 30.07 in 10.0 mi SSW 3.5 mph - N/A   Clear
7:56 PM 52.9 °F - 47.8 °F 83% 30.08 in 10.0 mi Calm Calm - N/A   Clear
8:56 PM 50.9 °F - 46.9 °F 86% 30.08 in 10.0 mi Calm Calm - N/A   Clear
9:56 PM 47.8 °F - 45.9 °F 93% 30.09 in 10.0 mi Calm Calm - N/A   Clear
10:56 PM 47.8 °F - 46.9 °F 97% 30.09 in 10.0 mi Calm Calm - N/A   Clear
11:56 PM 46.9 °F - 45.9 °F 96% 30.09 in 10.0 mi Calm Calm - N/A   Clear